Showing default

OUT OF THE BOX, 68428

Orbit data source: Space-Track

OUT OF THE BOX, 68428 is a French payload satellite in SSO that was launched on Mon, 30 Mar 2026 UTC via an FALCON 9 launch vehicle from the Air Force Western Test Range (AFWTR). Payload-class satellites include a variety of spacecraft equipped with specific instruments for various scientific and technological missions. These include communications satellites like Starlink; space stations such as the ISS; scientific satellites like the Hubble; Earth observation satellites from companies like Planet Labs, Umbra, and HawkEye 360; GPS; miniature CubeSats for education and research; and military/defense satellites.

Loading next visibility...
Identifier
68428, 2026-067N
Orbit
SSO
Country
Flag of FRFR
Related business
Manufacturer
Endurosat
Mission
Operational spacecraft
Bus & Motor
CUBESAT 16U, Unknown motor
Mass
~20 kg wet, ~20 kg dry
Launch date (UTC)
2026-03-30 (3 months ago)
Launch vehicle
FALCON 9
Launch site
Air Force Western Test Range (AFWTR)
Object type
Payload
Rocket body
Debris
Shape & HBR
Unknown shape, 0.2 m
Radar Cross Section
Medium (>0.1 m² and <1 m²)

Expand to show TLE details & history
Last TLE update: 2 days ago

TLE from 2 days ago
0 OUT OF THE BOX
1 68428U 26067N   26171.41668980 -.00003947  00000-0 -18815-3 0  9999
2 68428  97.4580 129.8870 0002111  42.8076 266.0261 15.18536342  1305
Epoch: 2026-06-20T10:00Z
TLE epoch observation values (Epoch: 2026-06-20T10:00:01.998Z)
Latitude
-50.84683°
Longitude
80.44775°
Altitude
530.15 km
Speed
7.596 km/s
True Right ascension
09h 16m 21s
True Declination
-50° 40' 22"
Sunlit
Object was in daylight at epoch
Visualization orbit readout
Latitude
Unknown
Longitude
Unknown
Altitude
Unknown
Speed
Unknown
Apparent Right ascension
Unknown
Apparent Declination
Unknown
Sunlit
N/A
Visualization observer readout
Local Sidereal Time
15:16:20
Azimuth
Unknown
Elevation
Unknown
Doppler factor
Unknown
Orbital elements
Apogee altitude
508.687 km
Perigee altitude
505.78 km
Semi-major axis
6,885.37 km
Eccentricity
0.00021
Inclination
97.458°
RAAN
129.887°
Arg. of periapsis
42.8076°
True anomaly
266.00197°
Mean anomaly
266.0261°
Eccentric anomaly
266.01403°
Mean motion
3.79885 °/min
Orbital period
94.77 mins
BSTAR
-0.00018815
Loading maneuver chart data...
Computing Atmospheric mass density...
Loading historical data...
Loading historical data...
Loading historical data...
Loading historical data...
Loading historical data...
Loading historical data...
Loading historical data...

Documentation

Showing up to 5 results
|